Terminal Aerodrome Forecast
Issued by NWS Knoxville/Tri Cities, TN

Home | Current Version | Previous Version | Text Only | Print | Product List | Glossary On
Versions: 1 2 3 4 5 6 7 8 9 10 11 12 13 14 15 16 17 18 19 20 21 22 23 24 25 26 27 28 29 30 31 32 33 34 35 36 37 38 39 40
000
FTUS44 KMRX 261441 AAD
TAFCHA
TAF AMD
KCHA 261441Z 2615/2712 17008KT P6SM SCT020 BKN120
      TEMPO 2615/2616 5SM BR FEW010 SCT020
     FM261600 17008KT P6SM VCSH SCT025 BKN120
     FM261800 18010KT P6SM VCTS SCT035 BKN040CB
     FM270100 VRB03KT P6SM VCSH SCT020 BKN080
     FM270500 00000KT 6SM BR BKN025=

USA.gov is the U.S. government's official web portal to all federal, state and local government web resources and services.